Location: *
(53.9002°N, 27.5624°E)
Time: 00:17:11
(UTC+00:00)

Meteor 2-20 Rocket - Pass Details

Date: 12 November 2019
Orbit: 941 x 958 km, 82.5° (Epoch: 11 December)

Event Time Altitude Azimuth Distance (km) Brightness Sun altitude
Rises 16:40:40 0° 189° (S) 3,606 7.6 -21.1°
Reaches altitude 10° 16:43:09 10° 190° (S) 2,668 6.9 -21.5°
Maximum altitude 16:49:16 89° 276° (W) 961 4.4 -22.4°
Drops below altitude 10° 16:55:28 10° 11° (NNE) 2,698 6.7 -23.3°
Sets 16:57:59 0° 12° (NNE) 3,650 7.4 -23.6°
